Theta_e
350 349 343 334 330 329 335 343 345 350 350 348 351 349 349 346 351 350 346 352 352 348 348 353 352 345 351 352 351 350 349 347 346 345 345 344 345 344 343 344 348 348 347
353 352 350 346 338 331 330 335 343 343 351 347 349 352 351 346 347 349 343 351 355 354 346 354 356 354 342 350 351 351 352 352 351 349 345 342 345 351 351 348 347 347 347
358 357 355 352 351 345 336 332 335 340 340 346 346 343 346 344 344 346 344 339 352 352 353 349 347 349 350 351 347 350 349 354 355 355 356 356 354 348 350 349 348 348 350
358 358 357 355 353 351 347 336 344 343 337 339 341 340 340 341 342 343 343 341 342 353 354 352 349 349 350 351 350 350 353 352 351 352 351 350 351 350 350 352 353 354 351
355 358 358 356 355 354 353 345 341 346 340 337 336 337 339 341 341 343 342 344 346 347 351 352 351 351 352 351 351 351 353 354 356 357 357 356 352 349 346 345 345 348 353
355 356 358 358 358 356 355 353 346 338 339 342 335 335 337 339 340 349 348 342 349 348 344 346 352 352 353 352 353 354 351 354 355 351 345 343 339 338 341 342 343 345 348
354 356 357 357 358 357 356 355 355 350 345 343 339 335 337 338 339 345 348 347 345 342 345 342 343 344 344 347 347 347 346 345 344 342 341 336 337 338 344 344 347 353 355
355 356 356 356 356 358 357 356 355 356 351 345 340 336 338 338 338 340 343 348 347 343 340 340 341 337 342 350 351 351 348 347 343 345 347 342 341 341 345 350 352 354 355
358 356 357 356 356 357 357 356 356 356 355 348 340 337 339 340 341 339 342 345 346 344 340 338 339 338 331 330 333 334 335 335 333 334 334 337 345 350 352 352 355 356 358
357 359 358 358 358 359 358 356 356 356 350 346 340 338 340 342 342 343 344 346 347 344 340 336 334 332 331 332 333 333 332 328 330 331 333 337 339 343 353 357 359 359 359
358 358 359 360 359 360 360 359 358 357 355 351 344 344 344 343 343 344 344 345 346 345 342 338 333 330 333 340 343 344 342 345 347 350 351 352 352 358 361 360 359 361 359
361 359 360 359 361 361 361 360 359 359 358 359 352 352 351 346 346 344 343 342 343 344 342 342 344 344 346 346 346 347 349 353 355 357 357 356 356 357 359 359 359 359 359
357 361 360 361 361 362 362 361 360 360 360 360 360 355 358 357 351 348 345 345 343 342 338 338 338 342 348 348 348 350 352 354 356 358 359 357 357 358 359 358 357 358 359
357 359 359 362 362 361 361 361 360 360 361 362 361 362 357 358 361 359 353 350 345 341 338 336 336 337 338 339 342 343 344 348 355 358 357 357 358 360 359 359 360 358 356
359 359 361 362 361 361 360 363 361 361 361 360 361 357 361 360 352 353 357 354 351 352 349 343 338 337 338 340 342 345 348 353 356 355 351 357 360 360 359 359 357 355 356
362 361 362 362 362 361 360 363 362 360 362 361 356 361 357 357 356 354 350 352 353 357 362 362 358 353 350 351 354 357 360 361 358 355 360 359 360 360 358 358 357 355 357
359 360 361 360 362 361 361 363 362 363 362 360 361 356 358 355 353 354 356 355 356 362 364 364 364 362 359 360 362 364 363 359 353 357 359 359 359 356 355 355 354 355 356
357 359 360 361 359 362 361 361 362 360 360 360 359 358 358 357 360 360 360 360 360 361 361 362 364 364 364 364 363 362 361 361 360 361 361 360 358 355 356 355 356 356 357
351 356 358 359 360 362 361 360 362 361 360 359 359 358 357 358 359 358 358 359 360 360 360 361 360 359 358 358 361 362 363 362 359 359 360 361 360 359 353 354 355 355 356
337 345 348 353 357 358 359 360 361 357 357 359 358 356 353 351 352 350 350 354 356 356 355 361 363 363 363 362 362 361 360 358 358 359 356 361 361 361 358 355 353 351 351
328 330 340 338 338 347 349 352 350 349 348 345 344 344 343 345 352 354 347 346 350 352 350 349 350 357 359 358 357 358 356 356 357 357 354 353 353 353 351 350 351 352 349
327 329 329 330 331 330 337 342 347 346 344 346 350 346 348 349 350 349 347 343 338 345 356 358 358 359 357 357 357 356 356 357 355 354 352 352 350 349 349 349 347 346 346
327 328 331 330 330 331 336 337 341 340 339 339 338 340 343 346 350 350 350 349 349 353 355 355 358 358 356 357 355 354 353 352 352 351 350 349 348 346 345 345 344 344 343
321 325 327 329 330 331 334 337 337 339 339 339 341 341 342 343 343 347 347 349 350 349 350 352 354 354 353 352 352 351 351 349 349 348 347 347 345 344 343 342 341 341 340
316 317 319 324 325 326 327 329 333 330 332 331 332 334 338 339 340 335 337 338 341 343 345 345 348 346 347 346 345 345 345 345 345 345 344 343 342 342 341 341 339 337 338
313 315 316 317 319 320 320 321 322 322 322 322 323 324 326 327 328 327 329 330 331 332 333 334 335 337 336 335 335 337 338 339 339 338 338 338 337 336 336 334 335 336 334
Wind_Speed
45 42 46 47 46 43 37 34 33 28 25 26 18 18 18 17 20 19 17 15 16 11 13 13 14 12 13 9 9 8 8 11 14 14 12 14 16 18 23 23 22 24 24
47 45 44 45 45 46 45 40 39 35 31 31 28 19 19 19 19 21 17 22 17 18 16 16 13 13 15 18 15 14 10 11 13 18 19 21 19 14 20 23 24 22 22
44 45 43 44 44 46 46 46 43 39 37 35 33 30 28 23 21 21 20 19 22 21 19 18 20 20 16 17 12 14 14 14 16 19 20 18 19 20 20 21 24 26 23
43 44 44 46 47 47 44 44 42 41 41 38 35 32 30 27 24 24 24 21 21 23 21 20 21 21 20 20 19 20 21 21 21 23 24 20 19 20 22 20 17 17 24
44 44 45 46 47 45 44 44 43 44 42 40 36 33 32 31 29 27 25 24 21 23 23 24 24 23 22 21 22 22 20 19 21 22 22 21 19 20 23 27 31 29 28
44 46 43 43 44 45 44 44 43 43 46 43 40 36 35 34 31 26 25 25 26 24 23 26 26 24 22 21 24 27 27 25 26 27 30 32 31 30 30 32 37 37 38
45 44 44 43 45 46 44 44 43 45 44 44 42 39 38 36 33 28 27 28 26 27 27 25 24 25 24 26 24 23 23 23 25 27 31 31 32 28 28 31 31 28 29
44 43 44 45 46 45 46 46 46 44 46 45 44 42 40 39 35 32 30 30 30 29 28 27 27 26 24 25 25 25 26 25 26 26 28 32 33 34 30 27 28 29 32
42 47 46 47 47 47 47 46 47 45 44 45 43 43 42 40 37 33 31 33 34 33 32 32 33 32 31 28 29 32 33 35 35 36 37 35 31 29 26 27 28 29 33
44 44 43 44 44 46 47 46 46 46 46 44 43 43 42 41 38 35 33 32 37 36 35 35 34 34 33 33 35 35 37 35 34 33 33 32 30 29 24 24 25 29 26
39 40 42 41 45 45 44 42 43 44 44 44 43 43 43 42 41 39 37 37 38 36 36 35 34 31 28 24 22 23 26 22 23 26 28 29 26 21 22 24 24 22 24
36 40 41 43 42 42 42 42 41 42 43 41 43 41 43 42 41 40 39 38 38 39 39 37 31 25 25 25 25 25 23 22 24 27 29 29 27 23 23 25 24 24 24
36 38 39 41 43 40 42 44 42 43 43 43 40 43 37 38 42 39 38 37 36 38 37 37 36 34 29 28 27 27 26 28 30 31 32 30 27 27 21 17 19 21 18
38 38 38 38 40 43 39 41 44 43 44 38 39 35 38 36 31 32 31 27 28 34 35 35 36 36 37 37 37 36 35 33 31 31 32 28 24 21 22 20 20 22 24
34 35 35 36 39 40 41 39 41 41 42 43 36 38 31 31 31 33 31 29 25 23 25 32 34 35 37 38 38 37 36 35 34 30 25 23 22 21 21 22 24 25 28
22 29 30 32 34 37 40 35 37 36 37 36 33 28 28 33 30 29 27 34 29 24 20 20 26 29 28 26 25 24 24 29 28 24 22 22 23 25 25 23 23 23 24
22 23 25 30 30 34 34 35 37 37 35 36 34 30 23 31 33 31 29 33 31 23 23 21 19 16 18 19 19 22 27 27 22 20 22 23 24 21 21 21 22 23 22
23 24 27 27 30 32 33 36 31 37 38 36 35 35 37 35 28 26 25 23 29 28 27 26 25 21 17 21 25 24 19 17 16 19 23 23 20 21 21 22 23 22 20
11 18 23 22 24 31 33 35 27 27 31 28 22 32 35 35 32 31 29 28 29 28 27 27 24 24 23 25 30 24 21 24 26 23 23 22 22 22 23 23 22 19 18
6 8 11 12 14 15 20 30 28 27 24 28 21 12 16 18 17 17 23 29 32 31 28 23 17 19 14 13 17 19 20 21 22 21 21 26 26 22 18 18 19 18 16
12 11 9 13 13 9 11 17 14 15 10 10 6 5 7 10 9 4 2 4 9 11 22 23 21 16 17 18 21 23 23 21 19 18 19 21 18 21 20 17 18 17 17
10 9 9 8 10 7 13 13 12 11 9 4 11 8 6 7 9 10 11 11 26 21 12 24 12 23 20 17 15 13 12 14 16 15 20 19 20 20 20 18 18 17 18
7 9 7 5 6 4 6 11 11 9 6 10 9 9 9 11 15 13 15 15 20 19 19 10 16 13 13 13 15 16 17 19 17 18 20 15 19 18 16 17 20 25 26
8 5 8 12 11 9 9 8 7 2 4 5 12 12 17 16 17 16 10 8 9 9 10 13 14 14 13 13 19 18 19 21 22 23 22 23 20 16 17 19 20 20 25
7 9 8 4 6 8 7 6 9 8 9 8 9 11 11 9 9 5 5 6 7 8 10 10 12 16 21 22 21 24 27 27 28 27 27 27 27 26 24 25 24 23 25
18 16 14 13 10 5 4 5 6 2 2 1 2 3 1 2 3 5 6 9 12 14 17 18 20 21 21 21 21 22 26 27 28 29 27 28 29 31 31 29 25 23 25
Wind_Direction
218 220 219 219 219 217 215 211 210 202 210 217 212 228 237 225 218 224 213 219 237 247 216 230 246 228 216 196 236 246 262 251 264 276 274 264 264 278 282 297 311 314 323
216 220 222 217 222 222 217 218 218 213 208 215 218 219 230 231 227 226 223 206 226 232 220 216 232 246 236 218 218 223 229 244 255 265 278 284 289 305 308 304 303 316 321
208 211 216 218 216 224 223 218 221 221 221 219 224 226 235 238 232 232 233 219 214 234 235 232 236 236 242 245 235 245 248 268 273 277 291 297 296 303 304 305 308 317 320
210 209 212 218 218 219 224 222 214 223 224 228 228 234 234 239 238 232 236 237 225 222 238 244 241 239 237 244 250 249 250 252 257 265 273 289 303 313 307 307 307 305 305
206 210 215 217 219 218 216 225 220 215 226 229 232 233 236 237 239 237 234 237 239 233 227 236 243 243 243 245 252 261 265 271 274 279 283 287 287 287 286 291 296 298 291
210 210 211 213 217 216 215 216 224 222 224 231 235 233 234 236 238 235 241 235 237 244 241 236 236 244 253 253 250 254 254 253 259 265 271 277 282 286 290 293 296 298 304
208 210 210 213 214 218 217 214 216 224 225 228 233 233 234 237 238 234 236 242 243 243 246 251 248 246 246 251 259 266 268 267 267 274 278 283 290 296 300 305 306 305 305
209 211 210 210 215 215 215 218 217 219 227 229 232 233 234 238 240 238 235 238 246 250 250 252 255 256 244 246 257 266 273 276 278 282 286 293 295 299 301 302 302 300 301
213 212 214 212 212 212 216 219 219 217 222 230 233 234 235 237 240 241 239 237 241 248 252 251 253 259 264 262 256 258 263 266 273 276 280 286 291 292 291 293 289 295 300
216 216 212 213 210 212 217 220 220 220 226 230 234 236 238 241 241 243 244 242 243 248 254 258 259 260 261 263 265 269 272 276 281 284 283 281 281 285 287 278 286 284 286
221 213 214 216 213 214 214 218 220 220 223 228 233 236 240 243 245 246 245 246 247 251 255 260 265 267 268 270 271 271 276 287 284 284 283 285 285 285 281 281 286 279 285
214 213 213 213 216 210 215 219 220 221 222 221 229 231 238 245 248 248 249 249 250 250 253 258 265 271 275 275 271 274 279 280 277 278 283 287 289 288 276 279 286 284 284
213 210 211 214 214 210 214 216 218 220 220 221 224 232 229 239 248 250 251 252 251 250 251 252 250 243 249 255 261 265 268 270 276 279 284 290 286 288 294 288 282 282 286
208 209 209 210 211 211 216 220 218 218 220 218 218 225 235 229 232 248 252 253 254 250 251 251 252 253 252 253 257 262 266 271 273 278 284 284 288 285 285 284 280 281 286
203 203 204 206 210 212 212 215 216 218 220 220 218 223 224 231 242 232 243 248 252 256 256 251 250 249 249 252 258 263 268 271 273 280 281 279 281 280 275 274 278 284 283
194 197 204 206 208 209 213 214 217 222 218 224 226 218 226 227 232 238 232 239 247 249 244 252 252 254 258 261 265 270 261 260 272 270 275 276 274 273 277 281 284 286 286
202 203 210 213 211 210 210 210 211 210 214 217 223 216 222 224 228 234 236 233 237 231 238 247 254 260 254 257 249 245 255 273 278 268 269 271 270 275 279 285 287 285 280
204 210 209 211 215 218 208 210 213 213 212 215 214 215 222 227 229 227 228 228 225 228 236 242 241 240 238 250 256 264 268 275 277 284 282 280 281 280 280 289 291 289 279
189 205 213 214 208 207 202 206 207 205 215 216 216 225 227 231 231 238 238 238 238 239 244 249 251 250 249 251 254 252 259 268 277 264 265 268 277 279 283 286 287 289 279
125 144 150 162 168 171 187 197 198 202 190 176 176 186 216 223 229 247 252 247 246 252 243 227 237 262 270 261 266 256 264 267 266 267 266 263 271 273 271 280 283 286 281
61 63 93 75 81 122 115 150 172 159 194 199 177 174 220 240 212 207 208 277 302 271 265 253 220 239 234 242 259 256 265 271 261 271 285 279 276 276 279 275 273 266 259
89 82 71 76 68 81 92 100 116 163 181 142 152 137 137 188 232 222 229 236 251 281 192 217 192 229 241 235 242 251 251 260 274 268 275 275 274 269 273 266 269 275 271
131 114 122 163 194 185 169 83 87 113 163 175 240 157 211 251 208 218 231 218 219 229 237 203 228 216 211 217 224 224 230 245 246 250 248 256 272 268 268 270 268 265 265
165 162 121 139 169 166 199 192 198 282 328 177 199 166 175 185 200 212 216 193 191 206 218 218 216 220 223 231 243 245 242 240 241 244 248 242 235 246 261 265 257 266 263
87 113 134 150 120 105 119 160 142 188 186 190 172 162 167 182 177 222 213 247 264 263 273 281 268 274 275 266 261 257 257 256 258 262 264 262 255 251 250 253 260 266 262
64 66 70 83 93 89 80 112 139 68 45 23 13 342 38 250 248 281 296 289 294 300 299 296 289 282 280 277 276 272 272 270 269 272 267 261 256 257 260 266 266 257 265